Weather observations for the past three days for
Hobart, Hobart Municipal Airport
Imperial (Metric)
Date Time (cdt) Wind (mph) Vis. (mi.) Weather Sky Cond. Temperature (ºF) Relative Humidity Wind Chill (°F) Heat Index (°F) Pressure Precipitation (in)
Air Dwpt 6 hour altimeter (in) sea level (mb) 1 hr 3 hr 6 hr
Max. Min.
13 23:53 NE 10 10.00 Fair CLR 79 70 74% 82 30.06 1015.8
13 22:53 S 7 10.00 Fair CLR 77 69.1 77% 79 29.98 1013.3
13 21:53 SE 7 10.00 Fair CLR 79 68 69% 81 29.94 1011.9
13 20:53 S 8 10.00 Fair CLR 84.9 66 53% 87 29.91 1010.7
13 19:53 S 14 G 24 10.00 Fair CLR 91 66 44% 94 29.89 1010.0
13 18:53 S 20 G 25 10.00 Fair CLR 93 66 95 90 41% 96 29.89 1010.1
13 17:53 S 15 G 28 10.00 Fair CLR 93.9 68 43% 98 29.9 1010.5
13 16:53 S 16 G 23 10.00 Fair CLR 93.9 68 43% 98 29.92 1011.1
13 15:53 S 13 G 23 10.00 Fair CLR 93.9 66.9 41% 98 29.93 1011.6
13 14:53 S 17 G 23 10.00 Fair CLR 93 68 44% 97 29.95 1011.9
13 13:53 SW 15 G 28 10.00 Fair CLR 91.9 70 49% 98 29.96 1012.4
13 12:53 S 10 G 24 10.00 Fair CLR 90 70 90 70 52% 95 29.97 1012.9
13 11:53 SW 17 G 26 10.00 Fair CLR 89.1 71.1 55% 95 29.98 1013.0
13 10:53 S 16 10.00 Fair CLR 86 72 63% 92 29.98 1013.2
13 09:53 S 18 10.00 Fair CLR 82.9 71.1 67% 88 29.99 1013.4
13 08:53 SW 15 G 22 10.00 Fair CLR 79 71.1 77% 82 29.98 1013.3
13 07:53 SW 10 8.00 Fair CLR 73.9 71.1 91% 29.98 1013.2
13 06:53 S 8 4.00 Fog/Mist CLR 70 69.1 73.9 69.1 97% 29.96 1012.6
13 05:53 SW 9 7.00 Fair CLR 71.1 69.1 94% 29.95 1012.2
13 04:53 S 8 9.00 Fair CLR 72 70 94% 29.94 1011.9
13 03:53 S 7 9.00 Fair CLR 70 69.1 97% 29.93 1011.7
13 02:53 S 9 10.00 Fair CLR 73.9 70 88% 29.94 1011.7
13 01:53 S 8 10.00 Fair CLR 73 69.1 87% 29.94 1011.9
13 00:53 S 8 10.00 Fair CLR 73.9 69.1 87.1 72 85% 29.95 1012.4
12 23:53 S 8 10.00 Fair CLR 73 69.1 87% 29.96 1012.6
12 22:53 S 7 10.00 Fair CLR 73.9 68 82% 29.96 1012.6
12 21:53 S 7 10.00 Fair CLR 78.1 68 71% 80 29.94 1011.9
12 20:53 S 9 10.00 Fair CLR 82 66.9 60% 85 29.93 1011.5
12 19:53 S 10 10.00 Fair CLR 86 66.9 53% 89 29.93 1011.5
12 18:53 S 14 G 25 10.00 A Few Clouds FEW049 87.1 66.9 89.1 84 51% 90 29.93 1011.6
12 17:53 S 15 10.00 A Few Clouds FEW047 88 68 52% 92 29.93 1011.7
12 16:53 S 12 G 24 10.00 Fair CLR 87.1 68 53% 91 29.94 1012.2
12 15:53 S 15 G 24 10.00 Fair CLR 87.1 68 53% 91 29.97 1013.0
12 14:53 S 13 G 24 10.00 A Few Clouds FEW041 87.1 69.1 55% 91 29.99 1013.5
12 13:53 S 15 G 23 10.00 Mostly Cloudy BKN040 86 69.1 57% 90 30.01 1014.3
12 12:53 S 9 10.00 Partly Cloudy SCT035 82.9 69.1 84.9 64 63% 87 30.02 1015.0
12 11:53 SW 12 10.00 Partly Cloudy SCT029 81 69.1 67% 84 30.03 1015.4
12 10:53 S 9 G 17 10.00 Partly Cloudy SCT026 SCT031 80.1 69.1 69% 83 30.05 1015.8
12 09:53 SW 13 9.00 Mostly Cloudy BKN020 77 69.1 77% 79 30.06 1016.2
12 08:53 S 12 10.00 Fair CLR 75 68 79% 76 30.05 1016.0
12 06:53 Calm 0.75 Fog/Mist CLR 64 64 69.1 62.1 100% 30.04 1015.7
12 05:53 Calm 5.00 Fog/Mist FEW002 63 63 100% 30.03 1015.5
12 04:53 Calm 0.50 Fog VV002 64.9 64 97% 30.02 1014.8
12 03:53 Calm 6.00 Fog/Mist CLR 64.9 64 97% 30.01 1014.6
12 02:53 Calm 7.00 Fair CLR 66.9 66 97% 30.01 1014.5
12 01:53 Calm 8.00 Fair CLR 66.9 66 97% 30.02 1014.8
12 00:53 S 5 8.00 Fair CLR 68 66.9 80.1 68 96% 30.02 1015.0
11 23:53 S 6 9.00 Fair CLR 69.1 66.9 93% 30.02 1015.0
11 22:53 S 7 10.00 Fair CLR 71.1 66.9 87% 30.01 1014.6
11 21:53 S 7 10.00 Fair CLR 72 66.9 84% 29.99 1014.1
11 20:53 SE 7 10.00 Fair CLR 75 68 79% 76 29.97 1013.3
11 19:53 SE 8 10.00 Fair CLR 79 66.9 67% 81 29.95 1012.5
11 18:53 SE 8 10.00 Fair CLR 79 66.9 82.9 77 67% 81 29.93 1012.0
11 17:53 S 15 10.00 A Few Clouds FEW028 80.1 68 67% 83 29.94 1012.3
11 16:53 SE 13 10.00 Mostly Cloudy BKN070 82 68 63% 85 29.96 1013.0
11 15:53 S 14 10.00 Mostly Cloudy BKN038 BKN055 81 66.9 62% 83 29.97 1013.4
11 14:53 E 8 10.00 Mostly Cloudy BKN035 BKN046 80.1 66 62% 82 29.98 1013.7
11 13:53 Calm 10.00 Overcast SCT029 BKN034 OVC047 80.1 66 62% 82 30 1014.3
11 12:53 SE 3 10.00 Overcast OVC030 77 64 77 68 64% 79 30.01 1014.7
11 11:53 SE 5 10.00 Overcast OVC027 75.9 64.9 69% 78 30 1014.4
11 10:53 SE 8 10.00 Partly Cloudy SCT080 75.9 63 64% 78 29.99 1014.0
11 09:53 SE 10 10.00 Partly Cloudy SCT048 73.9 61 64% 30 1014.3
11 08:53 E 7 10.00 Mostly Cloudy BKN044 73 62.1 69% 30 1014.2
11 07:53 SE 6 10.00 Partly Cloudy SCT046 72 63 73% 29.97 1013.2
11 06:53 E 7 10.00 Overcast OVC040 68 63 72 66 84% 29.97 1013.2
11 05:53 E 5 10.00 Overcast BKN024 OVC034 66.9 63 87% 29.97 1013.4
11 04:53 E 7 10.00 Mostly Cloudy BKN025 66.9 63 87% 29.96 1012.9
11 03:53 E 6 10.00 A Few Clouds FEW095 66.9 63 87% 29.96 1012.7
11 02:53 E 9 10.00 Partly Cloudy FEW033 SCT100 70 64.9 84% 29.95 1012.4
11 01:53 SE 6 10.00 Mostly Cloudy BKN017 BKN110 71.1 66.9 87% 29.97 1012.9
11 00:53 S 6 10.00 Overcast FEW023 BKN070 OVC085 71.1 69.1 79 70 94% 29.98 1013.3
Date Time (cdt) Wind (mph) Vis. (mi.) Weather Sky Cond. Air Dwpt Max. Min. Relative Humidity Wind Chill (°F) Heat Index (°F) altimeter (in) sea level (mb) 1 hr 3 hr 6 hr
6 hour
Temperature (ºF) Pressure Precipitation (in)